Lapse_Rate
2.2 2.3 2.5 2.7 1.8 2.5 3.0 3.0 3.0 3.2 3.4 4.1 4.1 4.0 3.4 3.3 3.6 3.7 3.6 4.9 6.8 6.4 6.0 6.1 6.2 6.3 6.2 6.2 6.0 5.9 6.1 6.3 5.9 5.8 5.9 5.5 5.0 5.0 4.5 4.2 3.9 3.9 3.8
1.9 2.2 2.9 2.9 2.8 3.0 2.8 2.9 3.1 3.2 3.3 3.9 4.1 4.5 4.3 3.7 3.7 3.6 4.0 4.5 6.4 7.2 6.4 6.2 6.5 6.7 6.6 6.6 6.0 6.1 6.7 6.9 6.8 6.3 5.7 5.1 5.3 5.0 4.2 4.0 3.8 3.8 3.8
1.6 2.0 2.4 2.8 2.7 3.0 2.4 2.0 2.7 2.7 3.3 3.6 4.3 4.4 4.0 3.6 3.8 3.4 3.6 4.3 5.3 6.8 6.8 6.1 6.4 6.7 6.7 7.0 6.8 6.6 7.0 7.1 7.1 6.3 6.4 5.8 4.8 4.5 3.9 4.0 3.9 3.9 3.7
1.6 1.6 2.2 3.0 2.8 3.1 3.2 2.8 3.0 3.9 4.1 4.1 4.4 4.0 3.8 3.8 3.8 3.3 3.3 3.9 4.5 5.2 6.1 6.1 6.4 6.4 6.6 7.2 7.4 7.4 7.6 7.7 7.5 7.3 7.0 6.2 4.7 3.9 4.0 3.9 3.9 3.7 4.0
1.3 1.7 2.3 3.1 3.1 3.2 3.5 3.4 3.4 4.1 4.4 4.4 4.3 4.0 3.6 4.0 4.0 3.7 3.4 2.9 3.5 4.3 4.8 5.4 5.8 6.1 6.7 7.0 7.8 8.1 8.0 7.8 7.6 7.7 7.4 6.8 5.1 4.3 4.0 4.1 3.7 3.7 3.8
1.3 1.7 2.2 2.7 3.3 3.6 3.6 3.7 4.1 3.7 4.2 4.6 4.6 4.6 3.9 4.3 3.8 3.8 3.4 3.1 3.0 3.7 4.1 4.6 5.0 5.4 6.7 7.1 7.6 8.2 8.5 7.9 7.8 7.8 7.5 7.0 5.0 4.2 4.1 3.7 3.6 3.7 3.8
2.0 2.4 2.5 2.6 3.4 3.7 3.9 4.1 4.4 4.1 4.5 4.8 4.9 4.4 3.8 4.2 4.4 4.1 4.0 3.0 2.9 3.0 3.5 4.0 4.1 5.2 6.6 7.4 7.7 7.9 8.3 8.0 8.0 8.0 7.7 6.9 5.2 4.1 4.0 3.6 3.6 3.8 3.9
2.4 2.7 2.8 3.1 3.3 3.7 4.1 4.1 4.6 4.9 5.1 5.0 5.5 4.8 4.6 4.2 3.8 4.3 3.8 3.7 3.1 2.7 3.0 3.5 4.0 4.9 6.4 7.2 7.5 8.1 8.3 8.2 8.2 8.3 7.6 6.2 4.4 4.3 4.1 4.0 3.8 3.9 4.1
1.7 2.8 3.4 3.4 3.5 4.3 4.6 4.7 4.5 4.6 5.3 4.9 4.8 4.7 4.8 5.4 5.0 4.0 4.2 3.9 3.3 3.5 3.6 3.4 4.0 4.8 5.7 6.4 7.4 8.2 8.1 8.0 7.7 8.1 7.8 6.8 5.2 4.6 4.5 4.4 4.1 4.1 4.1
1.4 2.5 3.9 3.8 4.4 4.7 4.8 4.9 4.6 5.1 5.2 5.1 4.5 4.4 4.0 3.7 5.6 5.3 4.0 3.5 3.8 4.0 3.3 3.7 4.1 4.6 5.1 5.3 6.1 6.6 7.1 7.5 7.8 8.0 8.1 6.8 5.8 5.1 4.8 4.8 4.5 4.4 4.4
2.4 2.6 3.4 4.1 4.5 4.6 4.7 4.7 4.6 5.0 5.2 5.3 5.1 4.6 4.1 4.1 3.6 4.2 5.5 4.4 4.1 3.8 3.7 3.7 4.1 4.5 4.4 4.8 4.8 5.5 6.6 6.9 6.8 6.5 7.0 7.1 6.8 5.8 5.1 4.8 4.7 4.6 4.6
2.6 3.4 3.5 4.4 4.4 4.3 4.3 4.4 4.7 5.3 5.4 5.5 4.8 4.8 5.7 5.2 4.5 4.3 4.3 5.6 5.8 4.2 4.0 3.8 3.5 4.0 3.8 3.9 4.3 4.7 5.7 6.0 6.1 6.0 6.0 5.8 6.2 6.1 5.7 5.3 4.9 4.9 4.8
3.1 3.3 3.6 3.5 4.0 4.5 4.5 3.9 4.6 4.9 5.2 5.3 5.4 5.3 5.2 4.6 4.6 5.0 5.2 5.1 5.1 4.2 3.8 3.6 3.8 3.7 3.6 3.7 4.0 4.3 4.7 5.5 5.5 5.5 5.5 5.6 5.7 5.5 5.6 5.4 5.2 5.1 5.1
1.6 2.5 3.4 4.2 4.3 4.0 4.3 4.7 4.4 4.7 5.0 5.4 5.0 4.7 4.6 4.7 4.5 5.2 4.8 5.6 5.3 5.1 3.7 3.7 3.7 3.5 3.8 3.6 3.9 4.2 4.0 4.7 5.0 5.3 5.3 5.2 5.1 5.3 5.7 5.5 5.5 5.6 5.4
1.4 2.1 3.3 3.9 4.5 4.5 4.7 4.5 4.6 4.6 4.9 5.3 4.7 4.8 4.8 4.5 4.7 5.1 4.9 5.1 5.0 5.1 5.3 4.2 3.3 2.7 3.6 3.4 3.8 3.4 3.6 3.9 4.2 4.3 4.3 4.8 4.7 4.3 4.7 5.0 5.0 5.2 5.3
2.2 3.1 3.5 4.1 4.0 4.2 4.5 4.6 4.9 5.2 5.3 5.3 5.2 4.5 4.5 4.2 4.8 5.2 4.6 5.1 4.5 4.7 4.9 4.4 3.9 2.9 2.9 3.1 3.1 3.3 3.5 4.1 4.3 4.4 4.3 3.1 2.6 2.7 2.9 3.1 3.3 3.2 2.9
2.6 3.2 3.7 3.8 4.0 4.1 4.1 4.3 4.8 5.2 5.3 5.4 4.9 4.7 4.4 4.5 4.7 5.0 4.7 5.2 4.9 4.8 5.3 3.0 3.8 3.4 3.0 3.2 3.2 3.6 4.3 4.2 3.4 2.6 2.2 1.9 1.5 1.2 0.6 0.6 0.4 0.1 -0.4
2.5 3.1 3.8 3.7 3.8 3.6 4.0 3.9 4.5 4.6 5.1 5.1 5.3 5.5 4.6 4.9 4.8 4.8 4.9 4.9 4.7 4.5 4.7 4.4 3.4 3.4 3.7 3.5 4.2 4.5 4.7 3.0 -0.1 -2.2 -2.2 -2.5 -2.5 -2.3 -2.4 -2.7 -2.9 -3.0 -3.1
2.7 3.1 3.1 4.0 3.9 4.0 3.8 4.0 4.5 4.7 4.7 4.8 5.0 5.1 4.7 5.0 5.2 4.7 5.1 4.7 4.2 4.3 3.9 4.0 3.4 3.6 3.1 2.8 4.2 4.7 2.1 -0.0 -1.3 -2.5 -3.0 -3.4 -3.4 -3.2 -3.3 -3.5 -3.3 -3.5 -3.7
3.1 2.6 2.1 1.6 1.8 1.7 1.3 3.7 4.3 4.2 4.5 4.7 4.6 4.9 5.1 5.2 5.0 4.5 4.8 4.8 4.4 4.1 3.9 4.1 3.7 3.6 3.7 3.9 3.9 4.5 3.2 0.9 -0.6 -2.1 -2.7 -2.7 -2.9 -2.8 -3.2 -3.7 -3.6 -3.5 -3.3
-0.5 -0.1 -0.9 -1.7 -1.8 -2.2 -2.7 -1.3 2.0 4.2 3.5 1.8 0.0 -0.8 -0.3 3.7 2.5 3.6 4.6 4.5 4.2 4.0 4.2 3.8 4.1 4.3 4.1 4.2 4.1 2.4 3.1 -0.2 -1.9 -0.9 -2.1 -2.7 -3.1 -3.8 -4.0 -3.3 -3.0 -3.1 -3.1
-2.2 -2.7 -3.1 -3.7 -3.7 -3.2 -3.6 -2.8 1.3 0.9 0.2 -0.3 -1.3 -2.0 -2.8 -3.0 -3.1 -3.5 -3.3 -3.8 -1.7 4.2 4.3 4.5 4.4 4.7 2.8 1.0 -0.0 1.4 1.6 1.1 1.0 -3.6 -2.0 -3.2 -3.2 -3.0 -3.2 -2.9 -2.7 -2.5 -1.8
-3.1 -3.6 -4.4 -4.6 -5.0 -5.0 -4.6 -3.7 -3.0 -2.1 -2.5 -2.4 -2.4 -2.9 -3.0 -3.7 -4.2 -4.3 -4.7 -4.7 -5.0 -5.0 -4.8 1.5 1.4 -1.2 -1.5 -2.5 -1.3 -0.5 0.1 -0.7 -2.0 -4.1 -1.5 -2.3 -2.5 -2.6 -2.3 -1.8 -1.1 -1.0 -0.7
-4.0 -4.0 -4.4 -4.8 -5.1 -5.4 -4.8 -4.3 -4.0 -3.4 -3.6 -3.9 -3.8 -3.9 -4.2 -4.6 -4.5 -4.5 -4.7 -5.1 -5.7 -5.8 -5.7 -4.9 -5.5 -5.3 -5.1 -4.6 -3.6 -2.3 -2.3 -4.2 -4.0 -4.1 -3.2 -0.4 -1.6 -1.5 -1.5 -2.1 0.0 0.9 0.9
-3.6 -3.8 -3.4 -3.2 -3.6 -4.8 -4.3 -4.2 -3.8 -4.1 -4.3 -4.2 -3.6 -3.8 -4.0 -4.2 -3.9 -3.4 -4.2 -5.0 -5.7 -6.4 -6.1 -5.9 -5.9 -5.8 -5.6 -5.3 -4.5 -2.3 -1.6 -0.2 -1.3 -2.9 -3.9 0.1 -0.9 -0.9 -1.6 -0.5 -0.5 1.7 2.5
0.0 -0.5 -1.6 -2.3 -1.5 -2.6 -2.8 -3.1 -2.2 -3.1 -3.6 -3.6 -3.1 -2.9 -2.3 -2.5 -2.3 -2.2 -3.1 -3.6 -5.0 -5.1 -4.3 -5.8 -5.0 -5.0 -5.1 -4.7 -4.3 -3.6 -0.7 -0.2 -1.3 -1.3 -2.8 -0.6 -0.6 0.8 2.6 1.2 0.4 0.2 1.2
Wind_Speed
7 5 5 6 6 9 8 7 8 7 6 9 10 9 9 6 5 11 13 22 25 27 26 23 22 21 23 22 21 20 18 16 12 12 12 12 12 13 14 12 12 12 13
7 6 6 5 5 10 8 9 7 7 7 8 8 9 5 4 4 10 13 17 22 23 25 22 20 19 20 21 21 20 18 16 14 13 11 14 14 14 13 12 13 12 12
9 8 6 5 5 8 9 6 5 6 6 5 7 7 7 4 3 8 12 15 17 21 21 20 18 20 21 20 17 18 18 16 14 13 14 14 13 12 12 12 11 11 10
15 8 6 6 7 8 6 5 7 7 6 5 5 5 5 5 4 5 7 13 16 16 18 18 19 20 20 21 19 16 15 14 14 16 15 14 12 13 13 12 11 9 9
14 9 7 6 10 6 6 6 5 6 7 6 5 4 5 4 5 5 6 10 15 16 15 16 17 19 20 21 20 15 12 13 14 15 15 15 14 12 12 12 11 10 10
15 9 7 7 7 7 6 6 8 6 5 6 5 4 4 5 5 5 4 5 11 14 14 15 16 17 20 20 19 18 16 15 13 14 16 16 15 14 13 12 12 11 11
12 10 7 8 8 8 8 8 5 9 3 5 4 4 2 3 6 5 5 3 5 10 13 14 15 17 17 19 21 20 18 17 17 16 15 15 15 16 15 15 14 13 13
11 10 9 9 10 6 8 9 8 4 3 9 4 4 3 1 1 5 5 6 5 8 8 12 14 14 15 15 18 20 19 20 20 19 17 17 17 16 15 15 14 14 15
14 12 11 9 10 9 8 10 9 10 6 7 9 4 3 3 2 0 6 6 7 5 6 8 11 15 17 18 18 20 20 20 21 20 19 17 17 17 17 16 16 16 16
12 12 12 10 13 8 9 9 8 8 6 8 5 2 2 5 3 2 1 3 5 5 5 5 8 12 16 16 19 20 23 22 20 19 19 20 21 21 20 18 18 18 17
10 10 11 13 10 8 9 10 9 9 8 7 8 4 2 2 2 3 4 2 2 4 4 5 9 12 14 15 16 20 24 25 23 21 19 19 21 22 22 22 21 20 19
8 11 12 10 9 9 10 9 9 10 9 8 7 6 8 5 4 3 3 7 8 3 5 6 5 10 13 15 17 20 26 27 27 25 24 22 20 21 24 24 23 22 22
8 11 10 9 8 10 9 9 9 9 9 9 10 8 7 7 5 6 5 7 4 2 3 5 6 11 12 14 16 21 24 28 30 29 28 27 26 24 22 22 23 23 23
9 10 8 8 11 8 8 9 8 8 9 8 9 9 7 8 7 9 7 8 4 2 2 3 6 9 13 14 18 23 18 28 30 30 30 30 30 29 28 26 24 22 22
7 8 8 8 9 10 10 9 6 8 9 10 8 11 9 8 9 8 6 9 6 5 6 4 3 9 13 14 19 17 19 20 27 27 28 30 31 29 27 27 26 25 24
7 8 9 9 9 8 8 8 7 7 9 8 8 12 12 9 11 9 7 6 4 4 4 3 4 3 10 11 14 16 17 20 19 22 24 24 23 22 19 19 19 18 17
10 10 10 9 7 6 6 5 5 6 9 9 9 11 13 15 11 10 8 7 5 4 3 2 2 2 3 6 6 11 12 7 3 5 7 5 8 7 5 5 4 2 1
8 7 8 7 6 6 6 6 7 7 9 10 11 14 15 12 16 13 9 11 7 5 3 7 2 2 3 3 3 5 5 11 12 16 21 22 22 20 20 19 18 18 16
6 6 6 6 6 6 5 5 6 6 8 8 12 13 15 16 14 11 12 11 7 4 3 4 3 2 2 3 2 2 6 10 16 21 23 23 22 21 20 20 19 19 20
8 7 7 6 4 4 4 1 4 4 6 4 4 9 12 14 15 13 12 12 10 8 6 4 3 3 2 3 2 3 4 4 6 13 19 19 20 21 20 22 20 20 19
9 8 8 7 6 7 5 4 3 3 4 5 7 7 5 8 14 13 10 11 11 8 7 6 3 3 3 3 5 3 3 5 4 3 6 7 9 11 13 18 18 17 16
10 10 10 8 8 7 11 11 3 6 6 6 7 7 8 11 17 20 21 22 11 8 9 6 5 6 4 2 2 2 5 3 3 3 3 4 7 5 10 13 15 15 14
10 12 10 9 10 9 15 16 14 9 8 7 7 6 8 7 10 13 18 20 21 20 16 0 5 2 3 2 3 3 3 3 3 1 2 3 2 5 8 10 11 12 12
12 10 10 10 10 10 16 18 17 12 10 11 10 9 9 9 9 11 13 15 15 15 12 9 10 6 6 4 3 2 4 8 5 4 4 3 1 2 4 9 10 9 10
13 12 10 11 11 11 17 16 13 12 13 13 11 11 10 10 12 17 15 15 14 13 24 30 28 27 22 17 10 5 4 4 3 2 6 2 1 2 2 2 7 11 12
11 10 12 13 17 12 18 18 13 8 12 9 11 12 19 12 16 14 12 12 14 9 9 13 9 17 21 21 21 9 2 4 3 2 3 2 1 1 3 1 4 7 11
Wind_Direction
173 159 159 168 149 157 168 174 173 178 175 172 171 173 157 144 234 235 165 176 179 165 165 170 169 175 160 156 155 154 157 155 163 165 161 164 169 163 153 157 160 160 158
172 169 168 174 164 175 184 187 186 175 174 174 176 159 125 135 243 250 164 181 181 180 168 172 174 176 165 160 161 161 163 163 166 179 176 168 171 165 166 170 167 159 163
176 164 160 175 170 179 168 151 149 138 149 154 156 154 131 174 205 254 165 172 181 180 176 175 180 180 169 159 158 163 165 172 177 168 173 168 174 173 175 172 166 173 170
181 162 166 180 168 173 176 175 167 165 159 160 154 155 148 162 174 234 216 162 168 170 177 180 183 181 173 158 158 173 174 171 176 173 171 181 174 176 180 180 176 179 188
177 172 170 171 165 172 180 174 174 170 176 165 157 161 156 169 187 194 232 174 166 167 169 182 184 184 178 168 167 175 180 182 185 181 176 178 181 189 185 188 183 192 203
179 170 164 162 171 176 178 166 173 174 169 171 154 157 169 184 181 186 201 200 161 164 175 178 172 172 176 176 172 174 192 185 194 191 181 184 189 190 190 187 198 205 209
179 171 165 166 175 180 179 174 164 164 152 152 122 118 81 159 184 184 172 167 168 164 172 175 173 176 185 180 174 174 190 192 196 202 191 191 199 198 201 198 203 212 217
177 176 169 173 179 174 178 175 174 158 169 174 161 130 152 120 206 185 171 176 172 156 170 180 180 183 182 175 187 180 191 195 198 201 200 197 203 209 212 213 213 219 225
170 177 175 176 177 180 189 184 178 179 182 187 172 145 152 175 137 176 185 175 162 170 173 176 188 188 190 187 191 190 200 203 202 201 203 210 213 214 217 219 221 226 231
176 169 187 183 189 180 187 183 184 194 183 198 181 155 114 134 168 155 206 160 142 174 160 183 191 195 196 192 201 198 203 210 215 212 207 211 209 212 215 221 226 230 235
156 170 185 192 187 184 191 176 180 193 196 207 200 160 129 149 124 154 159 139 155 177 168 189 196 198 193 195 202 205 210 215 219 220 223 214 215 215 216 218 223 228 233
163 184 185 184 189 185 186 177 183 191 195 205 197 198 198 176 177 156 115 177 192 189 182 196 193 203 194 195 205 207 215 219 223 225 228 228 228 226 225 222 225 231 236
176 180 171 179 185 190 187 174 182 187 196 203 197 202 203 204 165 172 172 170 157 180 175 200 200 202 199 201 209 210 217 225 226 228 232 235 236 236 236 231 232 236 240
168 160 166 180 191 172 184 190 190 188 197 207 205 201 197 189 175 173 163 164 137 156 149 179 194 196 200 203 212 212 214 224 229 231 234 239 242 243 243 244 242 242 244
146 157 177 188 191 190 186 183 184 192 199 204 199 195 194 191 188 177 157 168 166 148 201 204 183 199 200 198 214 205 212 223 228 231 235 239 242 244 246 249 250 253 256
141 169 182 196 184 177 180 183 195 204 208 212 207 193 190 181 182 175 160 173 141 135 181 177 205 172 190 197 205 201 214 225 231 236 240 244 248 248 254 256 257 258 260
157 170 181 162 154 161 171 173 197 207 222 224 207 194 194 183 176 172 171 175 177 157 161 110 127 137 136 174 172 197 207 197 151 235 223 241 255 258 255 252 254 256 142
148 165 154 147 164 179 193 197 217 214 228 234 235 224 191 179 175 170 174 176 181 177 146 153 119 128 100 126 153 162 118 93 87 79 91 89 91 96 99 98 93 89 88
128 139 141 155 173 184 175 197 207 214 231 239 222 196 181 178 167 170 177 171 158 148 125 138 137 130 109 95 109 96 102 96 101 92 83 85 90 90 88 87 87 85 78
119 101 81 69 63 69 70 270 218 227 230 221 202 182 177 174 168 159 165 164 156 154 142 136 125 133 147 161 151 147 143 117 106 89 81 84 86 81 81 79 77 76 78
83 86 94 82 61 51 22 321 321 228 131 97 65 41 39 184 169 164 159 161 157 152 164 148 143 149 157 162 188 155 131 128 79 87 89 69 74 73 69 73 73 73 70
78 78 65 67 55 46 14 22 115 87 74 87 94 79 47 51 75 76 78 70 61 173 171 170 175 193 159 127 115 128 134 147 138 21 113 77 75 73 69 78 82 78 77
75 72 67 65 60 44 47 54 58 67 66 61 73 78 83 61 74 90 77 72 63 55 46 216 139 99 134 139 128 126 111 82 101 54 126 103 70 85 65 69 75 83 82
62 65 61 63 65 51 53 67 72 70 66 55 60 65 78 76 71 88 87 77 65 57 52 57 79 76 75 76 58 56 94 103 89 47 7 106 107 80 63 63 60 73 77
59 61 57 55 58 58 60 65 77 79 70 63 57 57 62 68 85 102 98 93 85 81 70 77 72 72 67 64 52 98 102 119 96 33 9 79 83 102 60 62 56 65 76
64 64 61 54 53 56 60 70 76 81 80 75 65 63 62 72 76 83 97 107 93 78 89 74 58 58 53 51 52 48 63 109 110 92 358 90 104 107 122 112 68 71 81